Location: Windsor
(43.2292°N, 89.3015°W)
Time: 10:00:27
(UTC+00:00)

Tiros 1 - Pass Details

Date: 04 June 2022
Orbit: 629 x 663 km, 48.4° (Epoch: 04 July)

Event Time Altitude Azimuth Distance (km) Brightness Sun altitude
Rises 09:31:17 0° 292° (WNW) 2,925 10.2 -7.8°
Reaches altitude 10° 09:33:45 10° 283° (WNW) 2,019 9.3 -7.4°
Maximum altitude 09:37:55 33° 219° (SW) 1,067 7.8 -6.8°
Drops below altitude 10° 09:42:06 10° 155° (SSE) 2,027 9.6 -6.2°
Sets 09:44:36 0° 146° (SE) 2,940 10.5 -5.9°
